Theta_e
300 301 302 302 302 302 302 303 303 303 303 303 303 303 304 304 304 304 304 305 306 306 306 307 307 307 307 306 306 306 306 306 306 306 305 304 304 304 303 304 303 303 303 303 303 304 304 303 303 302 301 302 302 302 301 301 301 301 301 299 299 297 298 295 294 294 294 295 296 297 296 297 297 297 297 294 294 297 298 296 296 297 297 300 299
300 300 301 302 302 302 303 303 304 304 303 304 304 304 304 304 304 304 304 305 306 306 306 306 306 306 306 305 306 306 306 305 305 305 304 304 304 304 303 303 303 302 303 303 303 304 304 303 303 302 301 302 301 301 301 301 301 300 299 300 298 299 298 298 294 293 293 293 294 294 296 295 296 295 298 296 294 293 297 297 296 295 296 298 298
301 301 301 301 302 303 303 303 304 304 304 304 304 304 304 304 305 305 305 305 305 306 305 305 305 305 305 305 305 305 305 305 304 304 304 304 303 303 303 303 303 302 302 302 303 303 303 303 303 303 302 302 301 301 301 301 301 300 300 299 299 299 298 298 296 294 294 293 294 295 295 294 294 296 294 297 295 296 296 295 296 297 297 295 297
302 302 301 301 301 302 303 303 303 303 303 303 303 304 304 305 304 305 305 305 305 304 305 304 304 304 304 304 304 304 304 304 304 304 304 303 303 303 302 303 303 303 302 302 302 303 303 302 302 303 302 302 301 301 301 301 300 300 299 299 299 299 299 298 297 296 294 295 293 295 295 295 294 293 294 292 295 293 294 294 293 294 296 296 295
301 301 300 300 300 300 301 302 302 303 303 303 303 303 304 304 304 304 304 304 304 303 303 303 303 303 303 303 303 303 303 304 303 303 303 303 303 303 302 302 303 303 303 302 301 303 302 302 302 302 301 301 300 300 300 300 300 299 299 299 299 299 299 299 298 296 296 296 295 291 292 290 289 289 292 294 290 290 290 291 293 293 293 294 295
301 301 301 300 300 300 300 300 301 302 302 302 303 303 303 303 303 303 303 303 303 303 303 303 303 303 303 303 303 303 303 303 303 303 303 303 303 303 302 302 302 302 302 302 302 303 303 302 302 302 302 301 301 301 300 300 300 299 298 299 299 299 298 297 298 296 295 295 296 291 290 292 290 289 289 291 292 289 290 291 291 291 291 293 294
301 300 300 300 300 300 301 301 301 301 301 302 302 302 302 302 303 303 302 303 302 302 302 302 302 303 303 303 303 303 303 303 303 302 302 302 302 302 302 302 302 302 302 302 302 302 303 302 302 302 302 302 301 301 300 300 300 299 299 299 298 298 298 297 297 297 296 295 291 293 293 288 289 292 290 288 289 288 290 288 290 289 289 290 292
299 299 299 299 299 299 300 300 300 300 300 299 299 300 301 301 302 302 301 302 302 302 302 302 302 302 302 302 303 302 302 302 302 302 302 302 301 301 301 301 301 301 301 301 301 302 302 302 302 302 303 302 302 301 301 300 300 299 299 299 298 298 297 296 296 296 295 294 294 292 291 291 288 284 287 289 290 289 289 287 291 289 289 288 287
297 297 297 297 297 297 298 298 298 299 299 299 299 299 300 301 301 301 301 301 302 302 302 302 301 301 301 302 302 302 302 302 302 302 301 301 301 301 301 301 301 300 300 300 300 301 301 302 302 302 301 299 297 298 299 299 301 299 298 299 298 298 297 296 296 295 294 294 292 289 290 289 290 289 289 289 291 292 290 287 289 290 290 290 290
294 294 295 295 295 296 296 297 298 297 297 297 298 298 299 300 300 300 300 300 300 300 301 301 301 301 300 300 300 301 302 303 298 298 298 301 301 301 301 300 300 300 299 299 299 300 300 301 301 297 296 295 295 296 297 297 297 300 300 300 299 298 297 296 294 294 294 292 293 291 290 290 290 290 290 289 287 285 288 289 288 288 288 287 288
292 292 293 293 293 294 294 294 295 296 295 295 296 296 297 297 296 298 298 297 298 298 299 299 300 299 299 299 299 300 302 302 296 298 299 299 300 300 300 300 299 299 299 299 299 299 298 299 300 296 295 294 296 295 296 296 296 297 297 297 298 300 297 296 295 294 293 293 292 291 292 291 290 289 290 289 288 289 289 290 289 288 289 288 286
290 291 291 292 293 293 293 292 292 292 292 294 294 293 293 293 293 294 293 293 294 293 295 298 298 297 299 298 299 299 300 297 297 298 298 298 298 300 299 299 299 299 298 298 299 298 298 298 298 299 298 298 298 296 296 295 296 296 296 296 296 297 298 298 296 293 293 292 290 292 291 292 291 289 289 289 289 287 288 289 289 289 288 286 283
290 290 290 291 290 291 290 290 290 290 290 290 291 292 291 292 291 291 292 292 291 293 295 295 295 295 296 296 297 297 294 296 297 297 297 298 298 298 299 299 298 298 298 298 297 297 296 296 296 297 298 293 294 297 296 295 294 295 295 295 295 296 297 297 297 298 297 295 293 291 292 292 290 290 291 291 290 289 287 288 288 288 288 287 284
289 288 288 288 288 288 289 289 289 289 290 289 289 290 290 289 289 289 290 290 291 291 290 292 291 291 293 294 294 292 293 294 296 296 296 297 297 298 298 298 298 297 297 297 297 296 295 295 295 294 293 293 294 295 294 294 293 294 293 294 296 294 295 295 294 295 295 296 294 293 292 291 292 291 289 291 291 290 289 289 287 287 287 286 283
285 286 285 285 286 286 287 287 287 288 288 288 287 287 288 287 288 288 289 292 290 290 289 290 289 289 289 290 290 291 294 294 295 296 296 296 297 296 297 297 297 296 296 295 295 295 295 295 294 294 292 292 293 293 293 292 292 292 291 291 292 291 289 288 287 288 292 294 293 292 291 292 291 289 289 290 291 290 290 289 288 287 286 284 286
283 283 284 284 285 286 286 286 286 286 287 287 287 287 287 286 288 288 289 289 289 288 288 288 288 289 289 289 289 288 289 293 294 294 295 296 296 295 295 294 294 294 293 293 293 293 293 293 293 292 291 292 291 293 293 292 291 291 290 288 288 286 286 287 290 290 289 290 290 289 289 290 291 289 289 289 288 288 288 288 288 288 288 285 284
281 282 283 284 285 286 286 287 287 287 287 286 286 286 286 287 286 285 286 287 288 288 288 287 287 287 288 288 288 287 287 288 291 293 294 295 295 292 292 293 290 291 292 290 292 291 292 292 292 292 291 291 292 294 294 291 290 290 289 289 288 287 284 286 290 291 291 291 292 292 293 294 294 294 293 293 290 290 289 288 287 287 287 285 281
281 282 282 284 285 286 286 286 286 287 287 287 288 288 288 287 286 285 285 285 286 283 283 285 285 284 283 284 284 286 286 286 290 292 292 294 292 291 291 291 291 290 287 288 288 288 289 289 289 291 291 290 292 293 294 291 290 290 289 288 287 286 284 284 287 288 290 291 291 291 292 293 293 294 294 294 292 291 290 288 286 286 286 285 283
281 281 282 283 284 285 285 286 286 286 287 287 288 288 288 289 289 289 289 287 285 285 285 285 284 285 285 285 286 286 286 286 289 290 291 292 291 288 289 290 290 289 289 288 285 286 287 288 288 290 290 290 293 294 294 291 291 290 290 289 288 287 286 286 286 286 286 286 286 287 287 287 287 287 289 291 290 287 286 287 286 287 285 284 283
281 282 282 282 283 284 284 284 285 285 286 287 287 287 288 288 288 289 288 288 288 288 287 287 285 284 285 285 285 286 286 287 288 290 291 291 292 289 290 289 290 289 289 289 288 287 286 286 288 291 292 292 293 294 293 292 291 290 290 290 289 288 287 287 286 286 285 286 285 285 285 286 286 287 287 288 288 286 286 286 286 286 286 285 285
281 282 282 282 282 282 282 282 283 285 286 286 286 286 286 287 287 287 287 287 287 286 284 284 283 283 283 283 284 284 284 285 286 289 290 291 292 291 290 291 290 290 289 288 288 288 287 287 287 290 292 292 293 293 293 293 291 290 291 290 290 289 288 287 287 286 286 286 286 286 286 287 287 287 288 287 286 285 285 284 283 282 284 285 284
281 281 282 281 281 281 281 281 282 283 285 286 286 285 286 286 287 287 286 285 284 284 283 283 282 281 281 281 282 282 284 284 285 287 290 291 291 292 290 290 290 289 288 287 287 287 287 287 287 288 290 291 291 292 293 293 292 290 289 290 290 289 288 287 287 287 287 287 287 286 286 286 286 285 285 284 283 283 283 283 283 281 279 278 282
280 280 281 281 280 280 280 280 280 281 282 284 285 285 285 285 285 285 285 284 284 283 282 282 281 280 279 279 279 280 281 283 284 285 287 290 291 291 290 290 290 289 288 287 287 286 286 286 286 287 288 289 290 292 292 291 289 289 291 291 290 289 287 287 287 287 287 286 286 286 286 286 284 283 282 281 281 281 281 281 281 280 279 278 278
279 279 280 280 280 280 280 280 280 280 281 281 284 284 283 284 284 285 285 284 282 281 281 281 280 279 278 278 278 278 279 280 282 284 285 288 290 290 291 290 290 288 288 287 286 286 285 286 286 287 288 288 289 289 289 288 288 290 291 290 288 287 287 287 287 287 287 286 286 286 285 283 281 280 279 279 279 279 279 279 279 279 277 275 275
277 278 278 278 278 279 279 279 279 279 279 280 280 281 282 283 282 283 283 283 282 281 280 280 279 278 277 276 276 277 278 278 279 281 283 285 288 289 289 289 289 288 286 285 285 285 285 286 286 285 285 285 285 285 285 286 287 287 287 287 286 287 287 287 287 287 286 286 282 277 276 277 278 278 278 278 278 278 278 277 277 276 275 274 273
275 276 277 277 277 278 277 278 279 279 278 279 278 279 279 280 281 282 282 282 281 280 279 278 277 277 276 276 276 276 277 277 278 279 280 282 284 285 285 285 285 285 284 284 284 284 283 282 281 281 280 280 278 278 277 278 279 279 279 280 282 284 285 286 286 286 283 279 277 276 275 276 276 277 277 277 276 276 276 276 276 275 274 273 272
274 275 275 276 276 276 276 276 276 276 276 276 277 277 277 277 278 279 280 280 279 279 278 278 277 276 275 275 276 276 276 276 277 277 278 280 281 282 282 283 283 282 281 280 280 279 278 278 277 278 277 276 276 276 275 276 276 276 276 276 276 276 277 280 281 280 278 276 275 275 276 276 277 276 275 274 274 274 275 275 274 271 272 272 270
273 274 274 275 275 275 275 276 275 274 274 273 273 274 275 276 275 275 275 276 277 278 278 277 277 276 275 275 276 276 275 275 276 276 277 278 279 279 279 279 278 278 277 277 277 277 276 277 276 275 275 274 273 272 272 272 272 273 273 273 274 275 276 277 277 277 276 276 275 275 275 275 274 273 273 272 272 272 273 272 271 270 271 272 269
271 273 274 275 274 275 275 274 274 274 273 273 272 273 272 274 275 275 277 277 276 277 277 277 276 276 276 276 276 275 274 274 275 278 278 279 279 278 277 277 277 277 277 278 276 276 276 275 274 273 273 272 271 270 270 270 270 270 270 270 270 271 273 275 275 275 275 275 274 274 273 273 272 272 271 270 270 270 270 270 270 270 269 270 269
270 272 274 274 274 274 274 274 274 273 273 272 272 272 273 274 275 275 275 278 279 279 278 276 276 276 276 276 277 275 274 275 279 279 279 280 280 279 279 279 279 278 279 279 277 275 274 273 273 272 271 271 270 269 268 268 268 268 268 269 269 269 269 269 270 271 272 272 273 272 272 271 271 270 269 268 268 268 269 269 267 268 267 268 268
269 271 273 273 274 273 274 273 273 272 273 272 272 270 270 271 272 273 274 276 278 278 279 278 278 278 277 275 277 278 278 279 279 279 280 280 280 280 280 280 280 280 280 277 275 274 273 271 271 270 270 269 269 268 268 267 267 266 265 265 266 266 266 266 267 268 269 269 269 269 269 269 268 268 267 267 267 266 267 267 268 268 268 268 267
267 269 271 272 273 273 273 273 273 272 272 272 271 271 270 268 269 271 271 272 272 273 276 278 279 279 278 278 277 277 278 279 279 279 279 279 280 280 281 281 280 280 279 278 273 272 271 270 269 268 268 267 267 267 266 266 265 264 264 263 262 263 263 264 265 266 266 266 266 266 266 266 266 266 266 266 266 265 265 266 266 266 266 266 266
267 268 270 271 272 273 272 272 272 272 271 271 271 271 269 269 267 267 269 270 270 270 271 271 274 277 277 277 277 277 277 277 278 278 278 278 279 279 280 279 279 279 277 273 271 269 269 268 268 267 266 265 265 264 264 264 263 263 262 261 261 261 262 263 265 264 264 264 264 263 264 264 264 264 264 264 264 263 264 263 264 263 264 264 264
266 268 269 269 269 271 272 272 271 272 272 271 271 270 269 269 267 267 267 268 268 269 269 269 269 271 273 274 274 274 275 275 275 276 277 277 278 278 277 276 277 276 273 270 269 267 267 266 265 264 264 264 263 263 262 262 262 261 260 260 260 261 261 262 263 262 262 262 262 262 262 262 262 262 262 262 262 263 262 262 262 261 261 261 261
265 267 268 269 269 269 270 270 270 270 270 270 269 268 268 268 268 268 268 267 265 263 263 264 266 268 268 269 270 271 272 273 274 275 275 276 276 275 273 269 268 267 267 267 267 266 265 264 263 263 263 263 262 262 261 261 261 261 261 260 260 261 261 261 261 261 260 260 260 260 260 260 260 261 261 261 260 260 260 260 259 260 259 259 259
264 265 266 267 267 268 268 268 269 269 268 267 267 268 268 267 266 265 264 264 263 262 262 262 263 265 266 267 268 268 269 269 269 270 271 273 273 272 267 265 264 264 264 264 264 264 264 263 263 262 262 262 262 261 261 261 261 261 261 261 260 260 260 260 260 260 260 259 259 260 260 259 259 259 259 259 259 259 259 259 259 259 258 258 258
263 263 263 264 265 266 266 267 266 266 267 266 266 266 265 265 265 264 264 263 262 262 262 263 263 263 264 264 265 266 267 267 267 267 267 268 269 266 264 264 263 263 262 262 262 262 262 262 262 261 261 261 260 260 260 260 260 260 261 260 260 259 259 259 259 259 258 258 258 258 258 258 258 259 259 258 258 258 259 258 258 259 258 259 259
260 261 261 263 263 264 264 264 265 266 265 265 265 264 264 264 263 263 263 262 262 262 262 262 262 262 261 262 265 264 265 265 265 264 264 264 263 263 262 262 262 261 261 261 261 260 260 260 260 260 260 260 260 260 259 259 259 259 259 259 259 259 260 259 259 259 258 258 257 258 258 257 258 258 259 259 259 258 258 258 258 257 258 258 257
257 262 264 264 264 263 263 263 264 264 264 264 264 264 263 263 263 262 262 262 262 261 261 261 260 260 261 262 262 264 263 261 261 260 260 261 261 261 261 261 260 260 260 260 260 260 260 259 260 260 260 260 260 260 259 259 259 259 259 258 258 258 258 258 258 258 258 258 258 258 257 258 258 258 258 258 258 258 257 257 257 257 257 257 257
258 256 261 263 260 262 261 262 262 262 262 263 263 263 262 262 262 262 261 261 261 260 260 259 259 260 261 262 262 262 261 260 259 259 259 260 260 260 260 260 260 259 259 259 260 259 259 259 259 259 259 259 259 259 259 259 259 259 259 258 258 258 258 258 258 258 258 258 257 257 257 257 257 257 257 257 257 257 256 256 256 256 256 256 255
255 257 261 261 261 260 260 260 260 260 261 261 261 261 261 261 261 261 261 260 260 260 259 259 259 261 262 262 263 262 260 259 259 259 259 259 259 259 259 259 259 259 259 259 259 259 259 259 259 259 258 258 259 258 258 258 258 258 258 258 258 258 258 258 258 258 258 257 257 257 256 256 256 256 255 256 256 256 255 255 255 255 255 254 254
255 256 256 257 259 258 258 259 259 260 260 260 260 260 260 260 260 260 260 260 259 259 258 258 259 260 262 262 262 262 260 259 259 259 259 258 258 258 258 258 259 259 259 259 259 259 259 259 259 258 258 258 257 258 258 258 258 258 258 257 257 257 256 256 257 256 256 256 256 256 256 256 255 255 255 256 254 254 254 254 254 254 254 253 253
256 256 255 257 256 256 257 258 259 258 259 259 259 260 260 259 259 259 259 259 258 258 258 258 258 258 259 261 261 260 259 259 258 258 258 258 258 258 258 258 258 258 258 258 259 259 259 259 258 258 258 258 257 257 257 257 258 257 257 257 257 256 256 256 256 255 256 255 255 255 255 255 254 254 254 254 254 254 253 253 253 253 253 253 252
255 255 256 256 256 256 256 255 256 257 257 258 258 258 259 259 259 259 258 258 258 258 258 258 258 258 258 259 259 259 258 258 258 258 258 258 258 258 257 257 257 257 257 257 257 257 258 258 257 257 257 257 257 256 255 256 257 256 257 256 256 256 256 256 255 255 255 254 254 254 253 253 253 253 253 253 253 252 252 252 252 252 252 251 251
253 254 254 253 254 254 255 256 256 256 257 257 257 257 258 258 258 258 258 257 257 257 257 257 257 257 257 257 257 257 257 257 257 257 257 257 257 257 257 257 256 256 256 256 256 256 256 256 256 256 256 256 255 255 255 255 255 254 254 255 255 255 255 255 255 256 255 254 253 253 253 253 253 253 252 253 252 252 251 251 251 251 251 251 251
254 254 255 254 254 255 254 253 256 255 256 256 256 256 257 257 257 257 257 257 257 257 257 257 256 257 256 256 256 256 256 257 256 257 256 256 256 256 256 256 256 256 256 255 255 254 255 255 255 255 255 254 254 254 253 253 253 253 253 253 253 253 253 254 254 254 253 253 253 253 252 252 251 251 251 251 251 251 251 250 250 250 250 250 250
253 254 254 254 254 254 255 255 254 254 254 255 255 256 256 256 256 256 255 256 256 256 256 256 256 256 256 256 256 256 256 255 256 256 255 256 255 255 255 255 255 254 254 254 253 252 252 252 253 253 254 254 253 253 252 252 251 251 252 252 253 252 252 252 252 252 251 252 252 252 252 251 250 250 250 250 249 249 249 249 249 249 248 249 248
253 253 253 254 253 253 252 252 253 255 253 254 254 254 255 255 255 255 255 255 255 255 255 255 255 256 255 255 255 255 255 255 255 255 255 255 255 255 254 254 253 254 253 252 252 251 251 250 251 252 252 252 252 251 251 251 251 251 251 251 251 251 252 252 251 251 251 250 250 250 250 250 250 249 249 248 248 248 248 247 247 246 246 246 247
253 253 252 252 253 252 252 252 253 252 252 252 253 253 253 253 254 254 254 255 254 255 255 255 255 255 255 255 254 254 254 254 254 254 254 254 254 254 253 253 252 253 253 252 252 251 250 250 250 251 251 251 251 251 251 251 251 251 251 250 251 253 252 251 250 250 251 251 249 249 248 248 248 248 248 248 247 247 247 246 245 246 246 245 246
253 254 253 253 253 253 253 252 252 251 252 252 252 252 253 253 253 253 254 253 253 253 253 254 254 254 254 254 253 253 253 253 253 254 254 254 254 253 253 252 252 252 252 251 251 251 251 250 250 250 250 249 250 250 250 249 249 249 248 249 252 252 252 251 250 250 250 249 250 249 249 248 248 248 248 248 247 246 246 246 246 246 246 245 245
253 253 252 252 252 252 252 251 251 251 251 251 251 251 252 251 252 252 253 252 252 252 253 253 254 254 253 254 253 253 253 253 253 253 253 253 253 252 252 251 251 251 251 251 251 250 250 250 250 249 248 248 248 248 247 247 246 246 249 251 251 251 251 251 249 249 249 248 247 248 248 248 248 247 247 246 246 246 246 246 246 246 245 245 245
Wind_Speed
7 7 7 6 6 6 6 6 6 5 5 5 5 5 5 5 5 4 4 5 6 7 7 8 8 9 9 8 9 9 9 9 8 8 8 8 8 8 7 10 10 9 8 9 7 8 10 10 9 8 6 8 7 7 7 6 6 6 6 7 7 4 5 4 4 4 2 2 6 6 4 6 4 5 5 4 3 2 4 3 2 2 2 4 4
6 7 7 8 8 8 7 6 6 6 6 7 7 7 6 7 6 5 6 5 6 7 7 7 7 8 8 8 8 8 9 9 8 8 9 9 9 7 8 10 10 10 9 10 9 8 9 11 9 9 7 8 8 8 8 7 7 7 6 7 7 6 5 5 4 5 4 1 3 4 5 3 4 3 7 6 4 4 4 3 2 2 4 6 5
6 5 6 8 9 8 7 7 7 7 7 7 7 7 7 7 7 7 7 6 7 8 8 8 8 8 8 8 8 8 9 9 8 9 9 9 10 9 8 10 11 11 11 11 11 9 9 10 11 10 7 8 8 8 8 8 7 8 8 6 7 7 5 5 5 4 8 4 4 6 5 3 4 3 4 5 5 5 5 4 3 1 2 4 6
4 5 5 5 5 6 7 7 7 7 7 7 7 7 7 6 7 8 7 7 8 7 8 8 8 8 9 8 9 8 9 9 9 9 10 10 10 10 9 9 10 11 11 11 11 11 11 10 10 10 10 10 9 8 8 8 8 7 7 6 7 7 6 5 5 5 4 8 4 7 5 6 1 3 4 4 5 4 4 3 2 3 2 1 4
4 4 4 4 4 4 5 7 8 8 8 7 8 7 7 7 6 7 7 7 7 7 7 7 8 9 9 10 9 9 9 9 9 9 9 9 10 10 9 9 10 10 11 10 11 12 11 12 11 11 10 11 8 8 8 9 8 8 8 7 7 6 5 6 6 4 6 8 6 3 4 2 1 3 5 7 3 3 2 2 2 3 2 1 3
4 4 4 4 4 5 5 5 7 8 8 8 8 8 7 7 7 6 7 8 7 7 8 8 9 9 8 9 9 9 9 9 10 10 10 9 9 9 9 9 10 10 10 10 10 10 11 11 10 11 11 12 11 9 9 10 8 9 8 8 7 6 7 6 6 4 6 7 8 4 2 5 3 1 3 5 7 3 1 0 1 1 2 1 1
3 3 3 4 4 4 5 6 7 6 7 7 5 5 6 6 7 7 7 7 7 7 7 8 7 8 8 8 9 9 9 9 9 9 9 9 10 10 10 10 9 9 9 10 9 10 10 10 10 10 12 11 11 11 10 9 9 10 10 9 8 8 8 8 7 7 6 6 4 6 6 2 4 6 2 4 4 4 6 4 3 2 0 3 2
2 2 2 2 3 3 3 4 4 4 4 4 4 4 5 5 6 6 6 7 7 8 8 8 7 7 8 8 8 8 8 8 8 9 9 9 9 9 10 10 9 8 8 9 8 9 10 10 10 10 11 11 11 10 11 11 8 9 8 8 9 9 9 8 8 8 7 6 6 7 5 6 2 2 2 4 3 1 3 4 8 4 4 2 3
0 1 1 2 3 4 4 4 4 4 5 5 5 5 6 6 6 6 7 7 7 7 6 7 7 7 7 8 7 7 8 9 8 9 9 9 9 10 10 9 10 9 8 9 8 8 8 10 10 10 11 13 15 13 13 12 10 10 8 9 10 10 8 8 8 8 7 7 5 4 7 6 7 7 6 7 10 10 6 3 4 5 5 4 0
5 4 3 3 3 3 3 3 3 3 3 4 4 4 5 5 5 6 6 7 7 7 6 7 7 8 8 7 6 7 8 7 9 14 12 9 9 8 8 9 9 9 9 9 9 9 9 9 10 15 15 16 16 16 16 16 15 12 11 11 11 10 10 10 9 9 9 9 9 8 8 9 9 9 9 7 4 3 5 5 5 5 5 3 1
7 6 6 5 5 5 4 4 2 2 3 3 3 3 4 4 4 5 5 5 6 6 6 7 7 7 7 7 7 7 7 7 12 14 15 15 10 8 9 8 7 8 9 10 10 10 8 8 8 12 14 14 15 17 16 17 17 15 15 15 14 14 11 11 10 10 10 10 8 8 9 9 9 8 9 8 6 8 7 7 7 7 8 8 5
7 7 6 6 7 7 6 5 5 4 3 2 2 3 3 3 4 4 4 4 4 4 6 7 6 6 6 6 7 7 6 7 12 14 15 15 13 9 8 8 8 8 8 9 9 8 9 8 7 8 9 11 10 12 15 17 17 17 17 16 15 16 15 15 13 9 9 9 8 11 10 11 10 9 7 7 8 6 6 8 8 9 8 6 4
7 8 8 9 9 8 7 6 5 5 5 4 3 2 3 4 4 4 5 4 4 5 6 5 5 5 5 6 7 6 5 8 11 13 14 15 15 11 7 8 8 8 8 8 8 8 8 8 7 7 7 13 11 10 9 11 15 18 17 17 16 16 14 12 11 12 12 11 11 10 11 9 8 9 9 10 7 9 7 8 7 7 6 6 5
8 8 8 9 10 10 10 9 8 7 6 5 4 2 2 4 4 3 3 3 4 5 5 5 4 5 5 6 6 5 6 8 12 13 14 15 14 11 6 8 8 8 8 8 8 8 9 9 8 8 6 8 9 10 8 9 9 9 9 9 9 12 12 11 11 12 11 10 10 12 9 7 10 8 6 9 11 11 10 9 6 7 6 5 3
7 7 7 8 9 9 10 10 9 9 8 6 4 3 3 3 3 4 4 4 4 5 5 4 4 4 4 4 4 5 5 8 12 14 14 15 14 11 6 6 7 7 8 8 8 9 9 9 9 9 8 9 9 10 10 10 9 8 8 7 7 7 5 5 5 5 6 7 8 8 7 8 7 7 7 8 10 8 9 8 8 6 7 4 5
7 7 7 8 8 8 9 8 9 9 9 8 7 6 6 4 2 2 1 2 1 3 2 3 4 3 3 3 3 4 2 6 10 12 13 13 14 9 7 7 7 7 8 7 8 8 8 9 9 9 8 9 11 15 13 10 10 10 9 6 5 4 3 1 4 5 5 6 7 7 6 7 10 9 9 9 8 8 9 8 8 8 9 7 6
10 9 8 8 7 7 7 7 6 7 7 7 7 6 6 6 5 3 1 1 1 2 2 1 1 3 3 2 4 3 1 2 5 10 12 13 10 7 7 7 5 6 7 6 7 7 7 8 9 9 9 9 12 15 15 14 10 10 9 8 6 5 3 2 6 11 11 12 13 13 14 15 15 16 15 15 11 10 10 9 8 8 9 8 4
9 9 9 9 7 7 6 6 6 6 6 6 6 6 6 5 5 4 2 2 1 3 3 4 4 4 3 3 2 2 1 1 0 2 6 10 10 8 7 7 6 5 3 3 4 4 6 10 10 9 10 9 13 15 16 15 11 11 11 10 9 8 5 3 5 6 11 12 12 13 13 13 14 14 14 13 12 9 11 11 9 8 8 8 7
10 10 10 9 8 7 7 6 6 6 5 5 5 5 5 4 3 4 5 3 2 3 4 5 4 5 4 3 5 4 2 1 2 2 2 5 6 5 6 7 6 5 6 4 3 3 2 3 7 9 9 10 16 16 18 15 11 12 12 12 11 11 9 8 9 9 7 7 5 7 7 8 8 7 8 12 11 7 5 7 8 9 9 7 7
9 8 8 8 7 7 7 7 7 6 6 5 4 4 4 5 3 2 2 3 3 2 3 4 5 4 4 4 4 4 3 1 3 6 6 7 8 6 6 7 7 6 5 6 5 2 2 1 1 8 11 13 16 17 18 18 12 11 11 12 12 12 9 9 8 9 8 8 6 5 6 5 6 6 6 6 6 5 6 6 7 8 8 9 8
8 8 8 8 8 7 7 7 7 7 6 6 4 3 3 3 3 2 1 2 2 3 4 4 5 4 4 4 4 4 4 3 2 6 9 10 10 9 5 7 6 7 6 5 5 5 3 2 1 6 10 12 14 15 15 15 12 10 11 12 10 10 13 9 10 11 8 8 7 7 7 6 5 5 5 5 5 5 6 6 5 3 7 9 8
8 8 8 7 8 8 7 7 7 6 6 6 5 4 4 3 3 3 2 2 2 2 2 3 4 4 4 5 5 4 5 7 4 4 6 10 10 10 6 5 7 7 6 5 5 4 4 4 3 4 9 9 9 11 12 11 12 8 8 9 14 19 12 9 9 8 7 8 7 7 7 7 6 5 5 5 5 5 6 6 6 7 6 2 5
8 7 7 7 7 8 8 8 7 5 6 6 5 4 4 4 4 3 2 2 2 2 2 2 3 4 4 4 4 5 5 5 9 6 6 2 5 3 5 6 9 7 7 7 6 5 4 4 4 7 9 8 7 8 8 9 9 7 13 17 18 18 13 9 9 9 8 8 8 8 7 7 7 6 6 6 5 5 6 6 7 8 8 8 9
8 8 7 7 6 6 6 7 7 6 6 6 5 4 4 4 4 3 2 2 2 2 2 2 2 2 3 3 3 4 4 4 7 10 7 6 4 4 5 9 10 6 6 6 5 6 6 5 6 10 10 11 11 10 9 8 7 13 16 18 19 16 10 10 9 9 9 8 8 9 7 6 7 7 6 5 6 6 7 7 8 9 9 9 9
8 7 7 7 6 6 6 4 4 6 6 6 5 5 5 4 3 4 3 2 1 2 2 2 3 3 3 3 3 3 4 4 4 7 10 9 9 7 8 9 9 11 7 6 6 6 9 13 15 15 15 16 16 16 13 13 14 12 14 14 12 8 9 9 9 9 9 9 6 7 7 6 6 7 6 7 7 7 8 7 9 9 10 11 10
8 7 6 6 6 6 6 5 5 4 5 5 4 4 5 5 4 4 4 3 1 1 2 2 3 3 3 3 2 2 3 3 4 4 5 6 8 11 11 11 11 12 12 11 15 18 18 17 17 16 14 11 10 8 8 8 13 14 14 10 6 4 5 7 8 9 8 8 9 8 6 7 7 6 6 6 7 6 6 6 8 6 7 8 9
8 7 7 6 5 5 5 4 4 4 4 4 4 4 4 4 4 5 5 4 3 1 0 2 3 3 4 3 3 2 3 3 3 3 4 4 5 6 8 9 12 14 11 9 10 9 11 11 11 15 14 17 15 12 10 8 9 9 8 7 7 6 5 4 5 8 9 9 9 8 7 7 7 7 6 6 7 4 4 6 7 6 7 6 9
9 7 7 5 5 4 4 5 4 3 3 3 4 4 4 4 3 3 3 4 4 4 2 2 2 3 3 3 3 3 2 2 3 2 2 3 4 5 5 6 6 6 7 7 8 9 10 11 11 6 7 8 8 8 8 7 7 7 7 7 7 7 9 13 11 9 8 8 9 8 8 7 7 6 6 7 6 4 3 5 5 5 6 7 6
10 8 6 4 4 3 3 4 3 2 1 2 3 4 3 3 3 2 2 0 0 3 3 2 2 1 1 3 4 4 2 2 1 2 2 3 4 4 5 5 6 6 9 13 10 8 7 7 7 7 7 7 7 7 6 8 8 7 8 8 6 8 7 6 8 7 7 8 9 8 8 7 7 6 7 7 5 4 3 6 4 6 4 6 7
11 9 7 4 2 3 3 2 3 3 2 1 2 4 9 12 8 3 2 5 7 6 5 1 1 1 2 2 1 1 3 3 6 7 6 8 9 10 10 11 11 10 13 13 7 8 6 7 5 7 6 5 6 6 5 5 6 7 6 8 7 8 7 7 7 6 6 7 7 8 7 8 7 6 7 7 5 5 4 5 3 4 5 7 8
10 9 8 5 4 2 3 2 2 2 2 1 1 2 3 6 14 16 14 13 10 8 7 7 6 4 3 3 5 10 9 9 9 8 8 8 10 12 14 15 16 16 15 10 7 7 7 8 5 5 5 6 6 5 5 5 6 6 6 6 6 7 7 7 5 6 7 7 7 7 6 7 7 6 7 6 6 5 5 5 6 6 6 7 8
9 9 9 8 6 3 2 2 2 1 2 1 1 0 2 5 6 11 15 14 16 18 15 10 8 8 8 7 5 5 8 10 10 9 8 7 9 12 14 15 15 14 11 11 9 6 5 6 7 6 6 8 7 7 6 6 6 6 6 7 7 5 6 6 4 7 7 8 7 7 7 7 7 6 6 6 7 6 5 6 6 6 6 6 6
10 9 9 9 8 5 2 1 2 1 2 2 1 1 0 2 6 5 7 13 17 17 18 18 16 14 14 14 13 10 9 10 11 11 10 10 10 9 12 12 11 12 12 8 8 7 6 7 8 6 6 7 7 7 7 7 6 6 5 7 6 5 5 5 6 8 7 7 7 7 6 7 7 7 7 6 7 6 6 6 5 6 6 7 6
10 8 8 8 7 7 5 3 2 2 2 1 2 1 1 1 2 4 5 4 6 9 14 17 16 14 15 15 13 13 13 12 11 9 8 10 12 13 12 9 11 10 9 7 8 8 7 8 7 7 6 6 5 6 7 7 7 7 7 7 6 5 6 5 7 7 7 7 7 6 6 6 6 7 6 6 6 6 6 6 6 6 6 6 7
8 9 13 9 6 6 6 4 2 1 2 2 1 1 1 1 1 2 2 3 4 4 4 6 11 15 10 10 13 13 12 11 11 10 10 11 13 13 11 8 7 7 7 6 6 7 8 7 8 7 7 7 6 6 7 6 6 6 6 6 6 6 6 7 7 7 7 7 7 6 6 6 6 6 6 7 7 7 6 6 6 6 6 6 7
7 7 7 8 7 6 5 5 4 3 2 2 2 2 2 2 3 4 5 5 4 4 4 4 4 8 13 14 14 13 13 14 14 14 11 8 8 9 7 6 7 6 6 5 6 6 6 6 7 7 7 7 7 7 6 7 6 6 5 6 6 5 6 6 6 7 6 7 7 6 6 6 5 6 6 7 7 7 6 6 6 6 5 5 5
5 5 5 6 6 5 5 4 3 2 2 3 2 2 3 3 4 4 4 4 4 4 4 3 3 4 6 6 8 10 13 14 15 15 15 14 15 11 8 6 6 6 7 5 5 6 6 5 5 7 7 8 7 7 7 7 6 7 6 6 6 6 6 5 5 6 6 6 6 6 6 6 5 5 7 7 6 6 6 5 5 6 6 5 5
5 5 4 5 5 5 4 4 4 3 2 2 3 3 3 4 4 4 4 5 4 4 4 4 4 4 4 4 5 3 5 9 12 12 12 12 10 7 6 6 6 7 6 6 6 6 6 5 4 4 4 4 6 6 6 7 6 6 6 6 6 6 7 7 7 7 6 6 6 5 5 5 5 5 6 7 6 6 5 5 5 5 4 4 4
3 7 10 10 6 4 4 4 4 3 3 2 2 3 4 4 4 5 5 5 5 5 5 5 5 4 4 4 4 2 5 6 7 7 6 6 6 6 6 6 6 6 6 5 5 6 6 6 5 4 4 4 5 5 5 6 6 6 6 5 5 5 5 5 5 5 5 5 5 5 5 4 4 4 4 6 6 6 6 5 5 5 5 5 4
5 4 6 8 5 5 4 4 4 4 4 3 3 3 3 4 4 5 4 5 5 5 4 4 4 3 4 4 4 3 7 6 6 4 5 5 6 5 5 5 6 5 5 5 5 5 5 5 5 5 5 4 4 4 4 4 5 5 5 5 5 5 5 4 3 4 3 4 4 4 4 4 4 5 5 5 6 6 8 6 5 5 5 5 5
5 5 4 5 6 4 4 5 5 4 4 4 4 4 4 3 3 4 4 5 5 5 5 4 3 3 3 4 6 6 5 5 5 4 5 4 4 5 5 5 5 6 5 5 5 5 5 5 5 5 5 4 4 4 4 4 4 4 4 5 5 5 5 4 4 4 4 4 4 4 3 4 3 5 7 4 5 5 6 6 6 5 5 5 5
5 4 3 4 5 3 4 5 5 5 5 5 5 4 4 4 4 4 4 4 4 4 4 4 3 3 6 10 8 8 6 4 5 5 5 5 5 5 5 5 5 4 5 5 4 4 5 5 5 5 5 4 4 4 4 3 3 3 4 4 5 5 5 4 4 4 4 4 4 4 3 4 4 4 4 4 5 6 5 5 5 5 5 5 5
4 3 3 4 3 3 4 3 4 4 4 5 4 4 5 5 4 5 5 5 4 4 4 4 4 4 4 7 7 7 5 4 4 5 5 5 5 5 5 5 4 4 4 4 4 5 5 6 5 4 5 4 4 4 3 2 2 3 3 4 4 5 5 5 5 5 4 4 5 5 5 4 4 4 5 4 4 4 4 5 5 5 5 5 5
4 4 4 3 3 2 3 3 4 4 4 4 4 5 4 4 4 4 4 4 4 4 4 4 3 3 3 4 5 4 4 4 4 4 5 4 5 5 5 4 4 4 4 3 3 3 5 5 6 5 5 5 5 4 4 3 3 2 2 4 4 4 5 6 6 5 6 5 5 6 5 5 5 4 4 3 4 5 5 5 5 5 5 5 5
4 4 3 3 3 2 2 1 1 2 4 4 4 4 5 4 4 4 4 4 4 4 4 4 3 3 3 3 3 3 3 3 3 3 4 4 4 4 4 4 4 4 3 3 2 3 4 4 5 5 5 4 5 5 5 5 4 3 2 4 4 4 5 5 5 5 6 6 6 6 5 5 5 4 4 4 4 5 5 5 5 4 5 5 5
3 3 5 3 5 5 4 3 4 2 2 3 4 4 4 4 4 4 4 4 3 3 3 3 3 3 3 3 3 2 3 3 3 3 3 3 4 4 4 4 4 4 3 3 3 3 3 4 4 5 5 5 5 4 4 4 5 4 4 3 4 3 3 5 5 6 6 6 6 6 6 5 5 5 6 5 5 4 4 3 4 5 5 5 5
3 3 2 3 2 4 5 5 4 4 4 3 3 3 3 3 4 4 4 4 4 3 3 3 3 2 2 2 2 2 2 3 2 3 3 3 3 3 3 3 3 3 3 4 3 3 3 4 3 4 4 4 4 5 4 4 4 4 3 4 4 4 4 5 5 6 6 6 6 6 6 6 6 5 6 6 5 5 5 5 5 6 5 5 5
2 2 1 2 1 1 2 2 2 4 4 4 3 4 3 2 2 3 3 3 4 3 4 3 2 2 2 1 2 1 2 2 2 2 2 2 2 2 3 3 3 3 3 3 3 3 3 3 3 4 4 4 4 4 4 4 4 4 4 4 4 4 4 5 5 5 5 5 5 6 6 6 6 6 6 6 6 6 6 6 4 4 5 5 6
1 1 1 1 1 1 1 1 2 1 1 1 1 1 2 2 2 1 1 1 1 2 3 3 3 2 2 2 2 2 2 1 2 2 2 2 2 2 2 2 2 3 3 3 3 3 3 4 3 3 4 3 4 4 4 4 4 4 4 4 5 8 7 6 5 5 6 6 5 5 4 5 6 6 7 6 7 6 6 4 4 5 4 4 5
1 0 0 0 0 0 0 1 0 1 0 1 1 1 1 2 1 1 2 1 2 1 2 2 3 3 3 3 3 3 3 3 3 3 3 3 3 3 3 3 3 2 3 3 3 4 3 3 3 3 4 4 4 4 4 4 4 4 4 5 7 9 8 7 6 6 5 4 5 5 6 5 5 6 6 7 6 6 6 6 6 7 6 6 6
3 2 2 2 1 1 1 1 1 1 1 1 1 1 2 3 3 3 3 4 4 4 4 4 4 3 3 3 3 4 4 4 4 3 3 4 3 3 4 4 4 3 3 3 3 3 4 4 3 4 4 4 4 4 3 4 3 4 6 8 9 8 8 7 5 5 7 5 4 5 6 7 6 6 6 6 6 6 7 7 7 7 6 7 6
Wind_Direction
172 179 170 176 171 181 185 181 189 186 186 191 188 190 188 186 191 190 169 176 162 171 175 177 179 182 183 186 187 186 186 186 186 187 189 191 193 190 182 184 184 186 180 185 180 177 182 186 191 192 175 175 179 178 180 178 172 174 172 169 185 184 153 147 134 143 21 90 132 150 162 135 142 152 138 136 133 134 106 131 147 150 150 136 121
186 179 176 175 176 182 186 183 184 183 187 193 195 193 192 189 187 184 187 187 170 176 178 178 180 181 185 187 188 187 187 187 185 186 191 190 194 192 188 185 186 186 182 188 185 181 180 184 189 190 184 177 174 180 180 177 176 175 182 173 182 189 174 141 161 141 151 111 87 119 145 140 131 169 152 151 166 143 126 124 72 85 105 117 122
188 185 184 176 181 180 178 181 180 186 189 196 200 197 195 192 186 187 189 186 181 178 180 178 181 181 186 188 186 188 188 189 187 188 192 191 193 195 191 188 187 187 189 191 188 181 181 186 188 185 181 177 183 182 176 180 177 180 184 176 178 186 184 165 145 148 148 176 166 155 170 162 148 184 142 149 157 152 143 150 147 114 81 113 131
180 178 182 195 187 174 178 176 176 186 195 200 202 199 195 194 187 189 189 183 185 184 181 180 179 182 185 188 190 189 189 188 188 190 191 192 195 196 194 193 192 192 191 189 187 186 187 185 189 184 184 184 185 180 181 175 179 184 182 183 174 182 186 173 174 143 161 148 202 169 182 154 102 117 115 114 128 126 145 149 112 139 155 107 127
173 179 179 186 184 189 191 181 184 191 200 201 205 198 198 193 191 190 186 193 188 181 187 180 181 184 187 188 189 191 190 188 189 192 193 194 195 196 198 196 195 195 194 192 189 189 189 191 186 183 183 187 185 181 177 180 182 179 186 181 177 176 176 179 179 159 146 165 170 203 153 114 135 137 149 130 91 74 71 131 185 188 163 157 112
179 177 185 190 195 194 200 203 206 203 202 206 205 201 197 193 193 196 188 194 191 189 185 188 186 190 190 189 189 190 187 189 192 193 193 192 195 198 199 199 197 195 195 193 190 191 192 191 186 184 185 188 189 183 179 180 175 181 182 181 177 167 171 181 178 166 154 164 159 137 164 140 115 150 195 136 140 129 103 324 57 70 124 99 34
180 182 191 199 206 209 203 209 209 213 213 215 207 200 200 198 193 198 195 194 193 192 193 191 192 187 192 187 191 189 189 190 192 192 192 193 195 196 198 200 198 197 197 195 192 191 192 190 189 188 189 190 186 185 180 179 181 185 184 179 175 168 170 179 177 178 172 155 158 162 157 202 141 155 193 140 145 150 157 154 211 291 113 143 142
172 195 198 229 241 255 244 233 230 230 230 222 214 213 206 203 203 196 189 199 200 198 195 195 195 189 190 192 191 186 187 191 193 192 191 192 192 199 198 198 198 198 197 197 194 192 191 191 192 192 190 190 187 186 180 183 178 183 184 171 174 170 174 171 174 178 181 180 167 168 175 155 124 66 99 117 138 224 193 149 179 193 207 203 178
175 211 213 234 247 240 241 237 222 221 220 217 214 212 207 204 201 196 195 202 201 203 198 191 191 197 196 192 191 189 192 195 193 190 189 191 193 197 199 198 196 197 197 197 197 193 191 192 193 194 191 190 190 186 188 182 177 181 185 174 175 175 171 171 176 176 185 183 185 149 157 162 176 147 162 180 195 190 187 142 161 173 165 140 111
3 8 358 309 288 264 247 255 252 252 241 233 232 221 216 210 202 202 206 202 203 200 197 195 192 196 196 197 194 194 200 200 194 190 187 188 191 195 197 200 196 195 195 197 201 199 195 192 194 192 189 187 188 187 187 186 188 186 179 177 175 176 175 175 178 183 178 185 193 171 168 188 185 185 180 203 155 112 143 160 146 167 126 114 4
355 1 351 341 345 353 356 339 328 292 274 268 265 253 239 225 215 216 215 210 207 205 195 197 201 194 193 195 199 204 205 203 192 189 190 187 186 191 194 198 196 195 196 196 200 199 198 194 190 191 188 188 188 188 186 187 187 187 185 186 182 176 174 179 188 178 182 193 185 179 191 190 198 187 191 176 176 172 178 172 151 148 160 153 184
349 348 354 5 10 10 5 2 3 346 350 303 278 258 254 240 235 231 230 227 224 201 204 209 203 196 195 197 202 207 211 201 190 193 192 190 186 187 189 192 194 196 196 198 199 197 197 193 193 186 189 187 182 187 189 188 186 186 185 188 188 191 186 181 177 181 187 182 180 199 187 200 191 181 185 166 184 169 171 167 171 168 166 175 166
12 17 12 12 6 3 357 352 339 332 317 295 273 255 235 240 240 234 232 223 206 205 219 209 212 207 196 198 208 208 209 200 191 192 193 192 191 184 190 189 189 197 194 195 195 194 192 190 191 192 193 182 179 182 182 188 189 185 186 189 190 191 193 197 192 189 180 181 188 193 197 187 178 202 184 178 155 166 165 171 179 170 172 167 177
26 17 14 17 10 7 360 356 350 338 334 329 321 303 280 255 249 244 233 226 212 222 220 216 215 209 206 204 207 207 205 202 192 192 195 195 195 189 187 189 192 195 196 192 193 191 190 186 187 192 188 181 185 179 177 177 179 181 183 186 190 195 186 173 174 185 182 187 181 195 202 168 193 184 182 154 156 172 169 178 165 159 163 178 184
30 22 21 20 12 8 2 358 350 343 339 339 345 334 309 282 275 254 221 213 212 213 216 222 228 217 219 204 198 209 213 196 194 194 197 198 197 194 189 189 192 197 197 195 193 191 189 189 189 189 185 186 188 179 173 174 171 175 174 178 183 176 159 147 146 149 163 174 182 186 177 180 167 156 156 161 159 162 163 163 160 143 127 111 65
27 19 23 20 14 9 6 358 349 342 345 353 357 349 345 336 309 294 213 224 198 178 204 185 205 211 209 192 190 219 244 196 194 197 198 199 197 196 199 193 191 194 198 198 196 190 187 185 186 184 185 188 194 184 177 165 169 170 175 172 161 137 109 271 163 120 122 133 137 140 145 141 138 135 134 128 118 115 100 96 99 114 119 112 136
16 10 12 9 7 3 359 357 352 345 343 348 347 339 336 332 342 2 33 10 110 152 163 113 135 158 158 167 189 208 205 309 222 200 198 197 191 197 201 202 190 191 200 196 191 185 184 186 180 182 178 190 191 184 174 161 170 172 171 169 157 135 117 73 111 113 112 111 115 119 119 119 118 119 122 125 131 131 119 119 147 143 136 141 156
6 1 357 355 355 357 354 351 352 353 349 348 343 337 332 340 349 357 13 339 55 68 80 70 50 53 64 53 67 101 94 302 150 226 219 204 190 192 195 195 199 178 171 154 155 159 173 177 178 176 182 187 183 179 172 165 172 175 169 161 157 155 154 143 101 89 102 106 108 111 113 115 114 114 121 127 133 137 142 159 170 142 153 156 157
359 353 348 342 345 350 348 352 353 349 348 346 343 344 336 344 354 355 325 345 60 75 74 83 62 46 42 49 38 53 81 240 203 185 224 235 209 193 187 189 184 180 155 137 90 119 128 140 171 181 180 179 178 177 173 171 174 175 173 165 167 172 174 160 140 133 125 110 97 98 85 97 105 111 117 116 115 115 128 146 152 152 158 163 146
345 340 338 338 340 347 348 350 350 348 350 347 1 353 355 349 331 319 326 16 40 62 77 78 81 59 43 48 45 28 23 359 228 204 211 225 219 201 186 179 187 177 168 153 144 114 103 92 135 171 169 175 178 178 178 174 173 173 168 175 171 179 164 159 154 143 144 136 137 124 124 119 109 108 108 105 94 90 97 118 149 152 156 163 164
341 340 336 337 340 344 349 349 341 340 343 340 335 355 359 348 341 352 354 25 45 49 64 75 79 68 52 45 47 35 13 347 321 237 213 212 210 208 190 191 169 161 158 150 158 157 150 120 46 163 163 172 176 177 175 176 171 171 178 183 186 153 147 150 153 143 138 137 133 132 131 126 122 118 116 102 91 86 85 79 80 117 148 159 161
341 339 338 340 339 341 344 344 342 340 341 344 349 360 347 353 343 345 24 49 66 71 74 82 85 76 54 40 32 20 11 13 351 328 226 210 209 200 181 171 157 143 145 151 143 152 157 154 155 165 154 159 173 178 177 172 166 164 174 144 127 140 150 142 143 141 139 142 140 137 139 136 132 119 103 94 87 84 86 84 83 76 61 75 145
337 332 335 343 347 343 343 343 342 339 340 342 347 357 352 357 355 15 28 44 68 69 74 85 90 84 69 49 29 16 11 7 18 13 20 134 183 158 148 149 147 146 154 163 161 145 131 138 146 151 144 149 161 168 158 143 147 157 147 140 141 139 137 144 143 144 146 147 148 146 147 141 133 126 113 103 88 86 85 87 89 85 75 65 54
336 335 338 338 340 341 342 336 341 342 344 346 349 8 9 353 353 355 19 56 73 82 56 74 83 77 75 58 40 27 17 14 13 19 15 41 84 104 141 152 152 154 148 144 136 134 132 138 140 134 130 126 119 112 104 109 121 135 139 141 141 141 141 144 149 151 149 148 151 152 142 124 117 114 112 110 106 96 89 84 83 82 86 74 63
334 330 333 331 333 333 329 323 350 346 347 357 3 2 4 6 4 345 10 28 78 115 109 93 100 102 75 65 41 26 20 21 26 18 27 34 52 78 105 115 116 119 106 104 110 118 110 107 103 98 96 95 90 89 78 76 86 93 111 125 132 141 147 151 152 149 153 154 126 90 89 97 108 111 114 111 102 92 88 78 80 86 87 83 74
334 331 333 331 331 334 331 338 350 2 357 1 7 8 7 0 4 349 7 4 25 95 142 116 123 116 116 105 79 59 27 28 27 18 20 48 52 54 67 85 91 89 94 101 103 101 100 96 89 87 85 82 81 79 79 71 66 61 57 52 63 97 131 144 148 148 131 117 119 118 113 115 110 110 103 95 91 93 107 106 105 93 95 93 77
326 328 329 326 327 332 335 339 338 355 1 7 13 17 22 11 12 11 11 1 350 341 272 170 152 148 144 138 128 100 81 48 33 23 15 47 63 69 79 84 89 93 95 103 102 94 88 89 93 92 88 86 80 80 76 62 64 56 54 52 49 58 58 66 111 115 122 118 115 116 116 112 110 102 93 92 88 71 86 115 109 122 110 102 96
322 319 320 318 329 331 330 333 345 356 1 5 17 17 19 27 39 39 18 353 335 316 299 269 215 182 156 148 136 114 85 60 32 27 21 51 70 73 78 89 93 106 104 97 96 99 100 96 87 75 83 74 71 67 58 58 64 65 58 54 56 57 74 86 81 85 92 107 111 112 113 110 103 102 94 87 82 64 56 95 111 112 124 122 93
319 309 303 316 316 339 340 330 337 343 17 33 38 32 13 1 31 31 10 279 23 332 319 349 357 7 133 160 159 140 121 96 85 84 69 81 86 99 103 106 114 109 120 122 111 100 94 83 82 80 78 83 78 79 71 72 68 66 65 55 36 47 59 76 97 100 111 113 115 115 114 108 102 96 98 89 75 67 47 82 66 110 93 87 114
317 315 307 305 326 356 333 330 323 329 331 13 86 67 50 44 33 48 329 43 58 62 76 60 5 7 68 7 27 145 141 142 127 116 107 107 105 110 117 120 119 119 123 115 103 104 94 86 81 89 90 88 86 83 87 90 89 75 62 67 54 62 66 69 72 83 88 96 105 108 110 110 107 104 100 102 86 69 52 82 67 79 91 100 109
316 314 314 325 344 346 324 332 311 309 313 322 14 83 83 48 44 41 43 44 49 71 95 96 87 82 92 93 90 107 120 124 125 126 126 131 132 131 129 128 126 126 126 115 89 96 102 88 72 67 75 82 87 87 81 85 84 86 78 72 55 68 71 72 70 84 87 90 86 86 91 100 107 107 109 108 108 93 73 62 75 72 94 105 106
314 316 316 311 313 305 310 313 303 291 290 309 312 260 92 108 58 48 48 50 49 43 41 58 95 102 99 102 105 110 110 112 110 103 104 119 137 140 136 133 130 128 128 112 101 100 102 110 111 101 104 98 95 94 93 91 90 92 98 86 70 51 69 72 66 83 90 89 92 92 93 98 102 105 105 109 105 95 93 82 81 89 90 86 96
312 310 309 316 320 316 310 307 300 323 289 300 282 263 249 130 111 108 59 62 58 50 42 35 42 65 74 76 80 90 101 107 107 102 107 110 112 115 125 121 125 129 115 98 112 106 101 102 108 107 98 104 111 109 102 97 97 90 86 99 98 81 71 73 80 83 84 91 95 95 98 100 104 101 99 100 104 106 99 96 93 94 101 102 99
314 313 313 314 312 312 324 344 4 334 337 343 319 338 346 52 121 120 120 108 67 54 43 37 34 41 54 62 72 74 76 81 87 92 91 108 116 115 107 102 93 82 89 113 112 115 109 105 105 106 102 93 86 89 94 100 104 108 105 99 102 95 84 78 83 86 88 87 90 92 93 96 102 110 107 97 95 101 98 102 101 103 98 107 109
321 317 315 323 318 317 327 334 338 344 17 10 359 31 19 54 89 79 92 96 91 65 47 26 32 38 40 44 51 59 65 70 82 93 98 100 102 96 85 73 67 51 53 47 80 100 112 113 114 112 114 112 108 103 99 93 92 95 102 106 101 97 93 89 92 94 96 95 91 89 91 96 92 93 107 112 106 97 99 93 85 92 104 106 106
325 324 326 329 330 324 330 329 343 360 41 39 18 27 36 58 57 58 66 79 75 69 59 41 34 31 40 46 51 52 53 55 53 49 50 78 96 89 84 84 78 70 72 60 73 78 85 99 108 108 107 102 103 100 103 106 104 102 97 98 95 90 89 88 92 93 92 94 98 101 95 86 93 101 95 87 94 101 97 98 96 91 92 93 100
322 324 326 322 317 309 312 324 329 353 36 49 54 62 64 74 79 77 79 87 80 77 76 72 42 35 37 27 32 50 58 57 54 53 52 57 66 72 76 86 94 88 79 72 74 79 68 68 92 102 107 111 106 106 103 100 99 98 95 91 98 97 95 97 98 100 101 97 94 95 97 98 96 101 111 109 100 96 97 95 97 96 96 97 101
318 316 308 314 313 314 321 315 320 359 20 53 75 87 85 84 83 84 90 89 86 81 68 51 56 51 42 9 22 23 61 64 57 45 35 39 43 48 54 59 65 78 81 74 71 79 77 57 22 49 67 83 103 109 107 103 101 97 96 92 87 90 96 93 93 94 96 99 100 98 98 92 88 93 102 112 119 119 109 108 110 107 97 92 100
327 327 335 336 334 328 322 328 335 356 5 29 42 86 100 105 96 93 88 88 82 70 61 51 46 27 13 352 338 18 62 40 62 66 47 39 38 43 58 60 66 69 68 68 69 79 87 84 68 36 52 65 81 86 94 100 103 102 105 102 98 95 87 88 92 95 94 100 99 97 97 94 87 86 100 112 116 121 120 122 124 128 133 128 121
330 315 328 350 347 346 353 347 359 11 4 23 19 55 52 87 100 105 100 100 93 85 78 64 49 29 356 346 340 37 77 73 76 70 69 61 59 49 56 63 65 68 67 64 63 69 75 79 85 83 76 46 53 74 82 92 98 105 107 110 114 110 106 99 91 93 95 88 87 91 87 88 85 66 65 71 89 111 118 129 138 131 131 126 126
320 319 343 349 10 7 14 21 19 16 11 27 29 47 42 56 71 84 96 104 108 107 101 91 74 49 36 46 63 80 93 87 81 66 67 71 68 66 64 68 78 80 76 68 67 65 76 83 83 80 79 75 71 55 59 72 79 90 100 109 106 103 106 97 98 93 93 90 100 101 101 100 106 115 117 124 116 114 119 114 116 131 129 126 130
332 338 351 349 2 8 22 26 22 28 34 34 36 31 34 45 52 60 65 69 69 83 89 79 62 30 56 62 68 79 82 75 88 88 86 78 76 74 68 68 62 73 82 85 85 85 86 85 85 85 90 84 82 83 85 69 85 92 96 103 110 108 107 111 107 100 97 111 103 110 104 119 119 129 131 125 105 118 131 135 142 138 138 143 142
330 340 342 2 14 26 29 28 34 35 39 39 38 43 49 56 61 65 66 68 65 65 61 64 53 39 37 51 63 63 66 49 63 74 79 79 78 84 83 81 75 65 65 70 89 101 109 108 103 98 99 97 91 80 82 73 91 109 103 97 106 118 127 127 118 119 123 114 116 130 124 129 122 102 103 117 134 134 140 145 145 143 146 146 145
331 330 340 354 9 24 34 49 56 61 62 60 58 46 51 55 64 72 80 84 86 89 91 86 77 57 41 43 43 49 51 57 52 61 71 75 75 77 77 78 76 75 71 59 40 62 96 108 112 106 100 101 99 93 82 70 92 101 123 127 128 132 139 138 143 146 145 139 140 139 135 140 141 145 143 155 150 145 159 148 151 153 155 152 151
344 348 344 348 352 14 16 33 66 78 88 81 80 70 63 68 67 68 69 75 79 84 84 91 91 83 73 61 56 55 65 68 73 78 78 83 79 85 83 84 88 87 86 74 68 51 56 94 108 114 112 105 101 99 94 87 94 92 99 130 145 147 158 151 151 151 142 145 147 146 150 154 158 158 161 166 161 159 167 167 168 156 155 164 163
357 360 5 8 3 2 1 1 10 32 59 78 90 87 82 76 75 70 69 71 72 77 76 72 78 85 96 96 91 78 81 80 70 78 77 87 96 99 107 106 103 103 106 107 91 77 68 79 111 113 116 117 117 112 107 102 99 94 91 105 130 144 152 145 140 136 146 154 154 154 157 158 168 169 165 165 164 167 171 170 166 178 177 177 171
7 16 20 17 23 12 16 15 11 12 19 27 46 70 87 94 99 96 85 89 81 75 82 82 74 73 80 83 97 101 91 100 96 92 91 86 85 92 97 107 107 106 110 109 115 118 114 111 114 124 126 123 123 128 133 131 125 114 109 111 119 112 114 135 140 145 151 154 152 149 160 160 170 172 168 165 161 170 169 181 180 180 183 178 176
1 12 16 16 36 39 17 29 17 22 29 25 18 19 34 53 70 93 116 119 115 114 106 106 117 112 98 99 94 102 92 101 82 109 112 115 125 112 115 118 127 132 121 116 120 125 131 133 134 131 136 137 137 144 146 141 141 141 139 138 137 146 142 135 139 147 148 149 150 158 161 163 169 170 171 170 174 173 167 191 178 171 177 176 176
359 25 359 56 40 68 60 49 39 69 69 89 74 49 51 36 38 48 72 93 114 144 142 158 159 152 144 170 142 150 146 141 147 156 143 158 151 149 134 135 143 148 133 145 153 134 136 136 136 142 146 154 155 153 155 159 162 160 159 155 169 183 176 160 154 162 156 152 155 154 158 162 169 174 175 174 177 177 172 177 173 174 177 173 173
247 220 263 286 257 206 143 123 206 125 127 110 131 142 152 140 181 172 172 167 171 184 189 184 185 188 172 184 173 179 180 185 197 190 182 178 165 160 157 155 160 175 159 163 159 150 155 149 153 150 158 162 163 165 167 167 173 175 169 177 192 193 182 171 164 171 164 161 166 171 171 175 176 175 179 176 175 172 169 181 178 176 179 186 190
236 234 237 227 237 246 177 205 218 213 184 188 196 193 194 188 204 193 188 190 197 202 204 197 202 208 202 196 189 187 196 202 198 193 194 186 175 169 169 173 174 180 185 170 169 159 166 164 167 174 172 175 177 176 176 174 172 175 192 203 205 207 195 181 176 192 182 168 165 169 174 181 181 180 177 172 171 174 183 181 180 181 186 188 189